Location: Exeidioux
(45.6312°N, 1.6819°E)
Time: 17:21:49
(UTC+00:00)

MetOp-A - Pass Details

Date: 03 March 2021
Orbit: 819 x 821 km, 98.5° (Epoch: 12 April)

Event Time Altitude Azimuth Distance (km) Brightness Sun altitude
Exits shadow 19:27:03 - 162° (SSE) 2,625 6.5 -18.9°
Reaches altitude 10° 19:27:36 10° 162° (SSE) 2,412 6.3 -19.0°
Maximum altitude 19:32:57 85° 74° (ENE) 831 4.0 -19.9°
Drops below altitude 10° 19:38:20 10° 347° (NNW) 2,429 6.9 -20.8°
Sets 19:40:42 0° 347° (NNW) 3,366 7.7 -21.3°
